Location: Pedholt
(56.0260°N, 10.2097°E)
Time: 02:17:44
(UTC+00:00)

SR - Pass Details

Date: 31 July 2021
Orbit: 581 x 873 km, 66.7° (Epoch: 27 September)

Event Time Altitude Azimuth Distance (km) Brightness Sun altitude
Rises 04:38:16 0° 168° (SSE) 3,430 ? 8.6°
Reaches altitude 10° 04:41:29 10° 151° (SSE) 2,470 ? 9.1°
Maximum altitude 04:45:17 19° 109° (ESE) 1,899 ? 9.6°
Drops below altitude 10° 04:48:58 10° 67° (ENE) 2,380 ? 10.1°
Sets 04:51:59 0° 50° (NE) 3,259 ? 10.5°
